Tracking 19219 objects as of 21-Jul-2018
HD Live streaming from Space Station
objects crossing your sky now

SL-14 R/B

Track SL-14 R/B now!
10-day predictions
SL-14 R/B is classified as:


NORAD ID: 16882
Int'l Code: 1986-055B
Perigee: 612.4 km
Apogee: 640.6 km
Inclination: 82.5 °
Period: 97.1 minutes
Semi major axis: 6997 km
RCS: 4.759 m2 (large)
Launch date: July 28, 1986
Source: Commonwealth of Independent States (former USSR) (CIS)
Launch site: PLESETSK MISSILE AND SPACE COMPLEX (PKMTR)

Note: This is a ROCKET BODY
aabbcc
Your satellite tracking list
Your tracking list is empty




NASA's NSSDC Master Catalog

Two Line Element Set (TLE):
1 16882U 86055B   18201.63763248  .00000033  00000-0  11146-5 0  9994
2 16882  82.5195 220.5263 0020146 169.2747 328.5871 14.83165740726947
Source of the keplerian elements: AFSPC